Theta_e
349 349 349 349 350 349 350 350 350 351 350 350 349 349 350 350 350 350 350 349 349 348 348 348 347 347 346 346 344 343 342 340 337 335 334 334 334 335 333 333 333 333 333 332 333 331 330 329 329 329 329 329 328 329 330 330 329 329 329 326 325 323 323 321 318 319 319 320 323 325 325 327 325 325 326 326 328 328 334 331 332 331 331 331 331
349 349 350 349 349 349 350 351 351 351 350 350 350 350 350 350 350 350 348 349 349 348 348 348 347 347 346 345 345 344 343 341 338 335 334 333 333 334 333 333 333 332 331 331 331 332 331 329 329 329 330 329 328 329 331 331 330 328 327 328 326 326 325 324 320 318 319 319 321 323 325 326 326 324 326 326 327 329 328 328 328 329 330 330 330
350 351 350 350 349 350 350 350 351 351 350 351 350 350 351 351 351 350 349 349 349 349 348 347 347 347 346 345 345 344 342 341 339 336 334 333 333 333 334 333 332 332 331 331 330 331 330 330 330 330 331 329 328 328 330 330 330 329 329 329 328 327 327 325 322 320 319 320 319 320 321 324 325 327 326 328 329 328 327 329 330 331 332 331 330
350 351 351 351 351 350 350 350 351 351 350 351 351 351 351 351 351 350 350 349 348 349 348 348 347 346 345 345 344 344 342 341 339 337 335 334 333 333 333 333 332 332 332 331 330 330 330 330 330 330 330 329 328 327 328 330 329 330 328 329 329 328 328 328 325 324 322 321 319 322 322 323 325 326 329 329 328 329 328 329 329 330 330 331 329
350 350 351 351 351 351 350 350 350 350 351 351 351 352 352 352 351 350 350 349 349 348 348 348 347 346 345 345 344 343 342 341 339 337 336 335 334 333 333 333 332 332 332 332 335 331 331 331 331 330 329 328 327 327 328 328 328 328 328 327 328 328 329 329 328 325 322 322 321 321 322 323 324 325 326 326 327 326 326 327 329 329 329 329 329
350 350 350 350 351 351 351 351 350 350 351 351 352 352 352 352 351 351 350 349 349 349 348 347 347 346 346 345 345 344 343 341 339 338 337 336 335 333 333 333 333 332 332 331 333 333 332 331 331 330 329 329 328 327 327 328 328 327 327 327 328 329 327 327 329 327 325 324 323 323 323 324 323 325 326 326 326 326 327 328 327 326 325 326 327
350 349 350 350 350 351 351 351 352 351 352 352 353 353 353 352 352 351 351 350 349 348 348 347 347 346 346 346 345 344 343 341 339 338 337 336 335 334 333 332 332 332 332 332 332 333 333 332 331 331 330 329 329 328 328 328 330 328 328 328 327 327 327 327 328 327 326 325 324 322 323 324 324 324 326 326 325 326 325 325 325 324 322 323 325
349 349 350 350 350 351 352 353 353 353 353 353 353 353 353 353 352 351 351 350 350 349 348 348 347 347 346 345 345 344 343 341 340 338 337 337 336 335 334 333 332 332 332 332 332 332 333 333 333 332 331 331 330 330 330 329 330 329 329 329 328 327 327 327 327 326 325 324 324 324 322 321 324 326 325 323 322 321 324 324 322 323 324 321 322
349 350 350 349 350 351 352 353 354 354 354 353 353 353 353 353 353 352 351 350 350 350 350 349 347 346 345 345 345 344 343 342 341 339 338 337 336 336 335 334 333 333 332 332 332 333 333 332 332 333 334 337 339 338 336 335 330 329 329 330 329 328 327 327 327 326 325 325 324 323 322 323 324 324 323 322 321 322 322 322 322 323 323 322 323
349 350 350 350 351 352 353 353 354 354 354 353 353 353 353 353 353 352 351 351 350 350 350 349 348 347 345 344 344 344 343 342 336 328 331 338 337 336 336 335 334 333 333 332 332 333 333 333 335 340 340 342 342 342 340 339 338 334 331 330 330 328 327 326 325 325 325 324 324 324 323 322 324 324 323 323 324 323 321 319 319 321 318 319 320
350 350 350 351 352 352 353 353 354 353 354 354 353 353 353 353 352 352 351 351 350 349 349 348 348 348 346 345 343 343 344 342 329 326 327 331 337 336 335 335 334 334 333 333 332 333 334 334 333 338 341 343 342 344 342 341 340 339 337 335 335 331 328 325 325 326 326 324 324 323 321 322 323 324 324 324 324 323 322 321 320 319 318 315 316
349 350 351 352 352 352 353 353 353 353 354 353 353 353 353 352 352 351 350 350 350 350 349 348 348 348 347 346 344 343 343 332 327 325 326 327 331 338 336 335 335 334 334 334 334 333 333 333 334 334 336 338 338 340 343 342 338 337 336 335 334 334 331 328 327 325 325 325 323 323 322 322 323 323 324 322 322 321 321 320 319 319 317 314 313
350 350 351 352 352 353 353 353 353 353 353 354 354 353 352 352 351 351 350 350 350 349 349 348 348 348 347 346 345 345 344 331 325 324 325 325 327 333 337 336 336 335 335 335 334 334 334 333 333 333 334 342 341 337 337 340 339 333 335 335 333 329 327 327 328 330 327 325 324 324 324 324 323 325 326 323 320 319 317 316 316 316 317 315 316
350 350 351 352 353 353 353 353 353 353 354 354 354 353 352 351 351 351 351 350 349 349 349 348 348 347 347 346 346 346 344 330 323 321 322 323 325 330 338 337 337 337 336 335 335 334 334 333 332 332 332 334 336 336 336 336 338 337 332 331 331 333 329 327 326 327 329 328 326 325 327 327 326 327 329 324 321 321 318 318 318 316 315 317 318
350 351 351 352 353 353 353 353 353 353 353 353 353 352 352 352 351 351 350 350 349 348 348 348 348 348 348 348 347 346 346 328 320 319 319 320 323 326 338 338 337 337 337 336 335 335 334 334 333 333 332 331 334 336 335 335 332 330 330 329 330 331 330 330 330 330 330 329 329 329 329 330 329 328 327 323 324 324 323 322 321 319 317 313 312
349 350 351 352 353 353 353 353 353 353 353 353 352 352 352 351 351 351 350 350 350 350 349 349 348 347 348 348 347 345 347 324 319 318 318 319 322 331 336 337 337 337 336 336 336 335 335 334 333 333 332 332 335 333 335 332 329 327 328 329 329 329 330 332 329 331 332 331 330 330 330 331 329 329 328 326 324 323 323 319 315 314 312 310 310
347 349 350 352 353 353 354 353 353 353 353 352 352 352 351 351 351 352 350 349 349 348 349 349 349 348 347 347 346 346 345 323 317 316 317 318 321 333 335 336 337 336 335 336 335 334 335 334 334 333 333 332 329 324 329 336 328 326 326 327 325 325 327 329 327 325 325 323 322 323 324 322 319 317 316 316 321 319 314 312 312 310 310 308 309
347 348 349 351 352 353 354 353 353 352 352 352 352 352 352 353 352 352 350 349 348 349 349 349 349 349 348 347 347 346 344 322 315 314 316 316 322 334 335 335 335 335 335 334 333 334 336 342 339 333 332 330 321 321 325 330 327 326 325 325 325 324 325 329 330 330 323 321 321 319 318 318 318 316 315 314 313 316 314 311 312 310 310 309 306
346 347 349 351 352 353 354 354 353 353 352 352 352 352 352 352 353 352 351 351 350 350 349 348 348 348 348 348 341 344 343 323 313 315 315 315 323 335 335 335 334 334 334 332 333 333 333 340 342 336 332 325 317 320 322 327 328 327 326 325 324 324 325 327 328 326 323 323 319 321 321 322 322 321 325 321 318 318 317 316 312 311 311 310 310
346 348 349 350 352 353 353 353 353 353 352 352 353 353 353 353 352 352 351 351 350 350 349 348 348 348 348 347 345 345 341 328 320 313 314 313 318 336 336 335 334 334 334 332 331 330 332 335 336 323 320 316 315 316 317 321 327 328 327 325 324 324 325 325 326 323 320 319 315 319 319 318 318 319 318 319 321 324 317 316 314 313 311 309 311
346 347 348 350 351 352 353 353 353 353 353 353 353 353 353 352 352 352 351 351 350 349 348 348 348 347 346 346 345 344 339 331 323 312 312 312 315 324 336 336 336 334 332 332 330 330 329 329 327 318 315 314 313 312 312 316 324 328 327 326 325 324 324 322 326 328 317 319 318 317 316 318 316 316 317 316 318 318 317 316 316 314 311 309 306
346 346 347 348 350 351 352 353 354 354 354 353 352 351 352 353 352 352 352 350 349 348 348 347 347 345 343 343 343 341 338 329 329 313 313 311 313 318 334 336 336 334 331 330 330 330 328 326 325 318 313 313 312 310 310 313 320 326 323 314 314 319 322 321 320 318 317 316 314 316 314 314 312 313 316 316 318 319 313 310 313 313 313 311 307
346 346 346 346 348 350 351 352 352 354 354 353 352 351 352 352 352 351 351 350 348 347 347 346 344 341 339 339 339 338 336 332 321 321 312 311 311 313 322 329 324 334 331 329 329 329 327 326 327 317 312 310 308 308 308 311 317 318 307 307 311 318 324 318 319 315 313 313 313 311 310 310 311 311 312 312 312 311 312 311 310 310 311 315 313
344 344 344 344 346 348 350 351 353 354 353 353 352 351 351 351 351 351 350 349 347 346 344 343 341 338 337 335 335 334 334 333 322 319 318 311 310 311 314 318 320 329 331 329 328 328 327 326 324 310 307 304 305 307 309 313 318 306 306 310 313 319 319 318 313 314 314 311 310 309 308 308 308 308 311 313 312 309 310 309 308 308 308 309 308
342 342 343 343 344 345 347 349 351 353 353 353 351 350 350 350 349 350 349 348 347 345 343 341 340 338 336 333 332 332 331 331 327 322 317 312 310 310 313 314 316 318 327 328 331 329 322 315 310 307 306 303 305 307 309 310 308 306 306 311 320 316 316 313 311 312 309 310 309 309 308 311 310 311 310 309 312 313 312 310 309 309 308 306 307
343 342 341 341 342 343 344 346 349 352 353 353 352 352 351 350 349 349 348 347 345 343 340 339 338 336 334 333 331 330 327 326 324 322 318 314 313 310 313 315 319 323 326 327 322 319 315 312 310 309 307 309 314 316 317 315 311 311 310 315 318 314 312 311 310 310 308 309 310 310 309 309 309 308 310 311 309 309 308 307 306 308 306 306 305
344 342 341 341 342 343 343 344 346 349 352 353 353 352 352 351 349 346 347 346 344 340 338 336 335 334 333 331 330 328 326 324 322 319 316 315 315 315 317 319 320 323 325 324 319 321 318 317 316 313 313 314 318 318 319 316 313 312 313 315 314 312 311 309 310 310 310 308 310 309 307 308 309 312 310 308 308 307 306 310 306 304 306 304 303
346 345 343 342 342 343 343 348 347 348 350 352 352 351 351 351 348 345 346 344 339 336 334 333 331 331 331 330 329 329 326 324 321 318 315 316 316 319 323 324 325 324 322 322 323 323 320 314 312 316 316 317 318 317 317 316 315 313 312 312 311 313 316 317 318 308 307 308 307 308 311 310 309 308 309 307 305 306 307 307 307 304 305 303 299
347 348 348 347 345 344 345 345 346 348 349 345 341 349 349 348 346 344 345 344 341 338 336 335 335 334 333 330 329 327 326 325 324 314 318 313 317 322 323 324 324 323 320 316 322 320 319 318 317 316 316 316 316 315 314 314 314 312 311 309 309 310 312 313 311 310 309 309 310 309 309 308 308 308 308 305 306 306 304 303 304 301 302 299 299
339 341 342 348 349 347 346 347 348 347 341 334 327 316 311 307 327 342 338 331 327 325 324 336 337 335 333 333 334 331 328 330 313 306 304 305 307 311 313 311 311 317 313 314 320 318 318 318 318 317 316 316 316 315 314 313 312 310 309 311 310 309 310 310 308 309 310 309 309 308 310 308 307 305 303 304 305 306 303 306 302 302 301 298 299
334 334 337 336 338 342 343 345 345 339 336 336 334 326 318 311 297 302 318 321 314 309 312 313 317 324 331 330 318 315 315 307 303 302 302 303 304 305 305 304 304 304 307 318 320 319 318 318 317 317 317 317 317 316 314 312 313 312 310 311 311 311 311 309 309 308 310 309 308 308 308 306 305 302 302 305 306 304 302 302 303 302 299 300 298
333 331 330 330 329 329 329 329 330 331 332 334 332 326 322 314 310 299 304 312 312 310 309 310 312 314 317 320 318 314 306 302 301 301 301 301 302 302 301 301 301 303 305 312 320 318 318 317 315 315 315 315 316 314 312 312 312 312 311 310 311 312 312 311 310 310 309 308 307 306 304 303 302 303 304 305 306 303 300 300 299 299 300 299 299
330 329 329 329 329 330 329 329 328 328 328 329 329 327 327 324 316 311 305 299 299 300 301 304 306 307 307 307 309 308 303 301 300 299 300 300 300 300 300 300 301 301 306 318 319 316 315 316 315 314 314 314 313 313 313 313 312 312 312 312 311 311 312 311 308 309 310 309 307 305 304 303 303 303 304 304 303 299 299 299 298 298 298 296 298
330 329 329 329 328 327 328 327 328 328 328 327 328 330 329 326 322 319 318 318 316 308 301 298 299 303 303 304 304 302 300 299 299 299 299 299 299 299 300 302 299 301 312 320 317 316 315 314 314 314 314 313 313 314 313 313 313 312 310 312 309 309 307 305 307 308 307 307 305 305 304 301 302 299 300 300 299 298 297 299 297 296 295 295 295
333 336 336 334 327 325 326 327 326 327 327 326 325 324 324 325 326 326 326 325 323 320 316 312 301 299 306 302 299 299 299 299 299 299 299 298 298 298 302 311 313 315 315 318 318 316 315 315 314 314 313 313 312 313 312 310 309 309 308 307 304 304 303 304 305 306 305 304 304 303 302 301 299 300 299 297 296 296 297 297 296 296 294 296 298
333 332 331 331 329 328 327 326 326 326 326 325 326 326 327 327 327 326 323 322 316 312 309 306 306 303 298 295 296 297 297 297 297 298 298 298 299 305 317 317 317 317 317 315 315 315 316 315 314 312 311 310 310 309 308 308 307 307 306 306 305 303 303 302 303 302 303 302 301 301 300 299 298 298 296 295 296 297 296 296 296 297 298 297 298
332 332 333 333 332 331 329 328 328 328 326 325 326 326 326 326 325 323 321 318 315 312 309 310 312 311 309 307 301 297 296 297 297 297 297 299 302 316 321 320 319 317 316 315 314 315 314 313 313 310 310 309 308 308 308 306 305 306 306 303 302 301 300 301 301 304 300 300 299 299 298 296 295 296 295 296 297 296 295 298 298 299 299 301 302
332 331 331 331 331 330 329 328 327 326 326 327 326 326 326 325 324 323 320 317 315 314 313 317 318 314 310 308 311 307 302 299 298 298 298 299 310 318 318 319 318 317 316 315 315 314 313 310 309 309 309 309 308 307 306 305 305 305 305 303 303 302 308 305 307 302 300 299 298 297 298 296 295 295 298 295 294 294 296 299 296 295 296 298 297
328 323 323 325 327 329 328 327 327 326 325 325 326 326 325 323 322 320 318 317 317 317 318 317 316 313 309 308 307 309 312 312 312 310 310 313 317 316 317 317 316 315 315 315 316 313 311 310 310 309 309 308 308 306 305 305 304 304 303 302 302 301 303 301 301 299 300 298 298 297 297 297 296 295 296 294 295 295 294 295 296 296 295 295 295
330 329 326 325 328 327 328 329 327 326 326 325 324 325 324 323 320 319 318 318 317 317 317 317 314 310 309 309 310 314 317 315 315 313 313 315 316 313 314 315 314 315 315 314 314 311 310 310 309 309 308 307 307 305 305 305 305 304 303 302 302 301 301 299 298 298 298 298 296 295 296 296 297 296 294 293 294 294 295 296 297 296 295 295 296
330 331 332 327 327 328 329 327 325 325 325 325 324 324 322 322 320 320 319 318 318 318 318 317 314 311 310 309 306 310 319 317 316 315 315 315 315 313 313 314 314 314 315 315 313 311 310 310 309 308 308 307 306 306 305 305 304 303 302 302 301 302 300 298 297 296 295 297 296 295 296 296 297 295 295 296 302 297 296 297 296 295 296 296 296
329 328 328 328 328 329 328 328 328 329 327 326 324 323 323 322 320 319 320 319 319 318 317 315 312 311 306 302 301 301 313 316 315 315 314 314 314 313 313 313 313 314 315 315 313 312 311 310 309 308 307 307 306 306 305 304 304 303 302 301 300 300 300 298 297 297 297 297 296 295 294 296 298 297 298 301 294 294 294 294 295 295 295 297 297
329 328 329 330 329 328 328 327 327 325 325 324 324 326 324 321 320 321 320 320 320 318 316 313 312 311 308 303 303 303 311 313 316 313 313 313 313 313 312 313 313 314 314 314 314 313 312 311 309 308 308 308 308 307 306 305 305 303 302 301 300 300 298 297 297 297 296 296 296 298 297 298 299 296 295 299 294 294 294 295 296 296 296 295 295
327 328 328 328 327 326 326 326 326 325 325 326 326 324 323 321 321 321 320 319 319 318 316 314 312 311 308 305 303 305 311 312 312 312 313 313 312 313 313 311 310 310 311 313 313 313 312 310 309 308 308 308 308 308 307 305 304 303 301 300 300 299 296 298 298 297 297 297 297 298 297 298 299 295 298 299 292 294 295 296 297 296 296 295 296
325 325 324 323 323 323 324 325 325 326 327 326 324 324 325 322 321 320 320 319 320 318 316 314 312 311 309 308 307 308 311 312 313 312 312 312 313 313 313 312 312 311 310 311 311 311 311 310 310 309 308 307 306 306 305 303 302 301 300 299 298 299 297 298 298 297 297 298 298 297 296 296 293 292 294 293 296 294 297 295 295 301 297 296 295
325 324 323 321 321 321 322 323 326 325 325 325 324 324 323 322 321 322 321 320 320 318 316 314 312 311 310 309 309 310 310 311 312 312 313 312 313 313 313 313 311 310 310 311 311 311 311 310 310 309 309 307 306 305 303 302 300 299 298 298 298 298 297 297 296 298 297 297 297 296 297 295 291 292 298 294 294 295 292 294 296 297 296 296 296
325 325 324 323 322 321 321 321 322 322 322 322 322 322 321 321 321 323 325 321 319 319 315 313 312 311 310 311 311 311 311 312 313 313 313 313 313 313 312 311 310 310 309 310 310 311 311 311 310 310 309 308 306 304 303 301 298 297 297 295 296 296 295 296 298 298 297 295 295 293 294 294 294 294 299 299 296 295 298 297 297 297 297 297 296
323 323 322 323 322 322 322 322 323 324 321 321 321 322 321 321 321 321 321 320 319 318 316 314 312 312 312 312 313 313 312 311 313 313 313 312 311 311 311 311 312 312 311 309 309 310 310 310 310 310 309 308 306 304 302 300 298 296 295 295 295 295 296 297 295 294 294 294 292 291 291 291 291 291 293 292 292 295 295 295 297 297 298 298 298
322 322 321 322 322 322 322 322 322 320 319 319 319 320 320 321 321 321 320 319 318 316 315 314 312 312 312 312 313 312 312 312 310 310 309 310 310 310 311 312 312 312 311 310 309 309 309 309 310 309 309 308 307 305 302 299 298 296 295 294 296 297 293 295 294 293 293 293 291 290 289 289 289 291 293 295 294 295 295 295 296 297 297 298 298
322 324 322 323 322 320 321 320 319 318 318 317 317 317 318 320 320 320 319 318 316 315 312 312 311 311 311 311 312 311 311 311 309 309 309 309 309 310 311 312 312 311 311 310 310 309 309 309 310 310 309 306 304 302 300 300 298 297 296 295 295 292 291 292 293 293 292 290 289 289 289 290 290 291 291 292 293 294 294 296 297 298 297 296 296
325 323 322 322 321 320 319 318 318 317 316 317 316 317 316 317 317 317 317 317 315 314 313 312 312 312 311 311 312 312 311 310 311 310 310 310 311 311 312 312 312 311 310 309 309 309 309 309 309 309 307 305 304 302 301 300 298 297 296 295 292 291 292 293 292 290 292 291 289 289 290 291 290 290 290 290 289 290 296 299 299 298 297 297 296
Wind_Speed
18 17 16 16 16 16 16 14 15 13 13 13 13 14 13 12 12 11 9 10 10 11 11 12 12 12 12 11 11 11 10 10 8 8 8 9 9 9 8 8 9 8 6 7 6 6 6 6 6 6 4 5 5 4 4 5 3 4 4 4 5 3 5 4 4 6 4 2 2 3 2 0 2 2 3 3 4 4 3 3 3 4 4 4 4
19 18 16 15 17 16 16 14 14 13 14 14 14 14 13 12 12 10 11 12 11 12 13 11 11 12 12 12 12 11 11 10 9 9 9 9 9 7 8 9 10 9 7 8 7 6 5 6 7 6 5 6 5 5 6 5 5 4 3 5 5 5 3 4 4 3 6 2 2 2 2 2 3 1 4 4 4 3 4 4 3 3 4 5 5
18 16 16 16 18 16 15 15 15 15 16 14 15 15 14 13 12 12 12 11 11 12 12 12 12 12 12 12 12 11 11 10 9 10 10 11 11 9 9 10 10 10 9 9 7 6 6 7 7 6 4 5 5 5 5 6 5 6 5 4 5 5 4 4 4 4 4 5 2 2 2 1 3 4 2 2 3 3 4 5 5 4 3 4 4
16 17 17 17 17 16 16 15 16 16 17 15 17 16 14 13 12 13 13 11 12 11 11 12 11 12 13 12 12 12 11 11 10 10 11 11 11 11 10 10 10 10 10 8 7 7 8 7 7 6 5 6 5 5 5 4 5 6 5 5 5 5 5 5 4 4 4 5 2 3 2 1 3 3 4 3 4 5 3 5 4 5 5 5 3
16 17 17 18 16 16 16 16 16 17 18 15 17 16 15 14 12 14 13 12 12 11 10 10 11 12 13 14 13 12 12 11 11 11 10 10 11 11 10 9 9 9 8 7 8 9 9 9 8 6 6 6 5 5 5 5 4 5 6 6 6 5 3 5 5 4 4 6 4 2 1 0 1 2 2 4 4 3 3 4 5 5 6 6 4
17 17 17 17 17 18 17 16 18 19 18 16 17 16 15 14 14 13 13 14 13 12 12 11 12 13 13 13 12 12 11 12 12 12 11 11 10 10 9 9 8 8 7 7 8 8 9 9 7 7 7 8 7 5 5 6 5 5 6 5 5 4 4 4 5 6 6 6 5 4 0 1 2 3 2 1 3 5 6 6 5 4 4 7 7
17 18 17 18 17 17 18 18 17 17 17 16 14 13 14 15 14 14 13 13 13 13 12 13 12 13 13 11 12 12 12 11 11 11 11 11 11 11 9 8 8 8 7 8 7 8 8 8 7 7 8 8 7 7 7 6 6 6 7 7 5 5 5 5 5 6 6 6 4 3 3 1 1 4 1 0 2 3 4 6 7 4 3 4 7
17 18 18 18 18 18 18 17 16 16 15 14 14 14 14 13 14 13 12 13 14 14 14 14 12 11 11 11 11 10 11 11 11 11 11 11 10 10 9 9 8 8 7 7 7 8 8 9 9 8 9 9 9 8 8 8 6 7 6 5 5 5 5 5 5 5 5 5 5 5 1 1 5 3 0 1 2 4 4 5 7 7 6 3 4
18 18 17 18 19 18 16 14 14 14 14 14 14 14 14 14 13 12 12 13 12 13 12 12 11 11 11 11 11 10 11 12 11 12 12 11 10 9 9 9 9 9 8 8 7 8 8 9 9 8 8 10 11 10 9 9 7 7 6 6 6 6 6 6 5 5 5 4 4 1 2 3 6 7 5 3 4 7 3 3 5 6 6 6 5
18 18 19 20 18 16 15 14 14 14 14 15 15 15 14 13 13 13 13 13 12 11 11 11 12 13 12 11 11 10 11 10 13 18 15 11 10 9 8 8 9 8 8 8 8 8 10 9 8 11 13 14 14 14 14 14 13 10 9 8 8 8 7 7 6 5 5 6 6 5 5 5 7 4 2 3 4 3 4 3 5 6 3 5 6
18 19 20 20 17 16 15 15 15 15 16 15 14 14 14 13 12 13 13 12 13 12 12 12 13 12 13 12 12 12 11 11 16 16 17 17 11 9 9 8 8 8 8 9 10 10 8 8 6 9 12 12 12 16 15 15 15 14 13 13 11 10 9 7 7 6 6 7 6 5 4 5 5 3 4 6 4 5 5 3 5 4 4 4 6
18 19 19 16 15 16 16 16 16 16 15 16 15 14 13 13 13 13 12 13 12 11 12 13 13 12 11 12 13 13 12 14 16 16 17 17 15 11 8 8 8 9 9 10 9 8 8 8 7 6 7 9 8 9 12 15 16 15 14 13 14 11 6 8 7 6 7 6 5 5 3 4 3 3 5 3 6 4 5 4 4 5 5 4 3
18 17 15 14 15 16 15 16 17 16 16 16 14 13 14 14 14 13 14 13 11 12 14 13 14 13 13 13 14 13 12 13 15 16 16 17 18 14 9 10 10 10 10 10 10 9 8 7 7 6 6 11 9 7 7 9 13 16 14 12 9 12 13 12 10 9 8 6 5 6 6 4 4 4 4 3 2 3 3 3 3 4 4 5 5
16 17 15 16 16 16 15 16 17 17 16 15 14 14 15 16 15 13 12 10 12 14 13 15 14 13 13 13 13 12 12 12 16 16 17 19 19 16 11 11 10 10 10 10 9 9 10 9 8 7 6 6 6 7 6 7 7 7 6 8 8 11 13 15 13 13 11 8 6 7 5 5 6 5 5 2 2 4 3 5 4 4 4 6 4
17 16 16 16 15 15 16 16 17 16 15 15 15 15 16 15 14 13 12 13 14 15 15 15 14 14 14 13 12 11 11 13 16 18 19 20 20 17 12 10 9 9 10 10 10 10 9 8 8 8 6 7 7 8 7 7 6 7 8 8 9 10 10 9 9 8 5 2 4 4 4 4 5 6 4 3 4 5 4 5 4 3 3 1 3
17 15 15 16 16 17 17 17 16 15 15 15 16 16 16 16 15 13 12 12 13 12 12 13 14 13 13 13 12 12 9 16 18 19 20 20 21 13 11 11 10 9 8 8 10 9 8 8 8 8 7 7 9 12 9 7 7 7 8 8 8 7 8 8 9 9 8 6 6 5 6 7 5 3 3 3 3 3 1 0 0 0 1 3 5
16 17 17 17 17 17 17 17 17 16 15 16 17 17 16 15 14 12 14 14 14 14 14 14 12 13 14 13 13 12 8 14 19 20 20 22 16 11 11 10 10 9 9 9 7 6 6 7 7 7 7 7 8 11 12 11 7 7 7 6 0 3 4 1 3 3 9 10 10 10 5 3 4 6 6 8 4 2 2 1 4 1 2 4 3
17 17 17 17 18 18 18 18 17 16 15 17 18 16 15 13 15 14 16 15 15 15 13 12 12 13 13 13 14 11 8 13 20 21 22 22 18 13 11 9 9 9 8 5 5 6 7 13 9 7 7 6 10 13 14 11 7 7 4 0 4 7 4 2 4 5 4 2 1 1 3 4 5 6 6 4 4 4 4 3 3 2 3 3 4
16 17 18 18 18 18 18 18 17 17 17 18 16 16 16 16 14 13 14 13 14 12 12 12 12 11 12 13 14 14 9 12 20 21 22 22 18 11 10 9 10 9 7 5 5 6 5 8 12 10 8 9 14 15 16 11 8 8 6 7 9 7 7 7 5 4 3 4 3 2 1 2 1 1 0 2 5 6 5 5 4 4 4 5 5
17 17 18 17 16 16 15 17 17 17 18 17 16 17 15 12 13 14 13 12 12 12 12 12 13 12 11 11 11 12 11 10 15 21 22 21 21 13 9 9 10 10 8 7 6 4 5 5 9 12 13 15 16 16 15 15 10 7 6 7 8 8 5 5 4 3 3 3 3 1 1 1 1 0 0 0 2 3 5 4 5 6 5 5 4
16 16 16 15 14 15 15 16 19 18 17 17 17 15 13 14 13 13 14 12 12 12 13 12 12 11 10 10 10 10 11 12 14 21 21 21 21 17 10 11 10 9 8 8 7 7 5 4 3 10 15 16 16 16 15 14 9 6 8 9 5 3 6 4 3 7 5 4 3 2 1 1 1 1 2 2 2 2 3 4 5 5 5 5 4
15 14 12 11 12 12 14 14 15 15 15 14 14 15 14 14 14 14 12 12 14 14 12 12 12 10 8 9 10 10 11 17 12 17 20 21 21 22 12 11 10 9 8 7 7 6 6 5 5 10 15 16 15 14 13 11 9 5 5 6 9 9 5 4 5 4 4 4 3 2 1 0 1 1 0 0 1 3 3 3 4 4 5 5 5
9 9 9 10 11 13 13 13 13 11 12 13 14 15 13 14 13 12 13 13 14 14 13 11 10 9 8 7 8 9 9 11 17 15 18 21 22 20 16 10 12 9 9 9 9 7 6 6 6 11 13 14 13 12 11 11 8 5 8 8 7 7 6 5 4 5 5 3 2 2 2 2 0 1 1 1 2 2 3 3 3 3 3 3 4
6 8 9 10 11 12 13 15 14 13 14 14 14 14 14 14 13 12 13 12 11 11 9 9 9 9 9 8 6 6 8 8 13 18 17 19 16 18 14 12 13 8 8 7 6 7 7 6 7 13 13 13 12 11 11 10 6 8 8 6 7 6 4 5 4 5 3 3 3 3 1 1 1 2 1 2 3 3 4 3 3 3 3 4 3
5 5 7 8 10 11 11 12 13 13 13 13 14 14 15 14 13 12 12 12 12 11 10 10 11 10 9 10 8 7 7 8 8 11 17 17 16 17 15 12 12 12 7 6 7 7 8 11 13 15 13 11 11 10 7 5 6 6 6 7 9 4 5 5 5 5 5 5 3 1 2 1 3 2 3 3 2 1 1 3 2 2 3 3 3
9 10 9 9 10 9 10 11 12 14 15 14 15 14 14 14 13 12 12 11 11 10 9 10 9 9 10 9 9 8 8 7 7 7 7 10 10 12 11 10 11 11 11 9 11 12 13 14 14 13 12 11 8 5 5 4 4 5 6 8 5 5 5 5 4 5 6 4 3 4 2 1 1 2 2 1 1 4 1 1 3 5 5 5 6
9 9 11 12 13 13 15 14 13 14 15 14 14 13 12 12 13 12 12 12 11 9 8 7 6 8 9 8 8 8 8 7 7 7 7 7 7 8 9 8 11 12 9 8 9 9 9 9 7 8 8 9 7 6 5 6 5 4 4 4 3 4 4 5 6 7 4 4 3 2 1 2 1 0 1 2 3 3 1 1 2 4 3 2 1
9 10 12 11 11 13 14 18 18 13 14 14 13 11 11 12 14 14 15 15 14 14 13 11 8 4 4 6 9 9 8 8 8 9 8 8 8 8 9 9 8 8 9 8 8 8 8 10 11 8 7 6 5 4 4 4 4 4 4 3 3 3 3 5 4 3 3 3 3 2 0 0 1 3 3 2 3 3 0 1 0 3 2 1 2
6 9 10 10 11 11 11 11 12 12 10 8 8 12 15 16 15 14 14 15 19 19 17 16 17 16 14 10 9 8 8 9 10 9 12 14 14 11 9 9 8 8 10 14 10 7 7 6 7 6 6 6 6 5 5 4 4 4 4 4 4 4 5 6 6 5 5 4 3 2 2 1 4 3 2 3 3 2 0 1 0 1 2 1 2
3 1 3 5 7 9 10 10 11 11 11 11 11 6 12 10 3 15 15 17 21 21 18 14 13 14 14 12 9 12 12 10 13 16 16 17 18 19 15 14 13 12 15 17 13 10 9 8 7 7 7 6 6 6 6 5 5 5 4 4 5 5 6 5 5 5 4 4 4 3 4 3 4 3 3 3 3 2 0 1 1 0 0 1 3
4 6 8 6 10 8 4 2 7 9 11 13 12 12 9 9 16 14 13 15 12 12 16 16 17 19 18 13 3 6 13 17 19 17 17 17 17 16 17 17 18 19 17 12 7 8 8 7 6 5 6 6 6 6 5 5 5 5 5 5 5 6 6 5 5 4 4 5 4 5 3 3 6 5 3 2 2 2 2 0 0 1 2 2 3
6 7 8 8 10 10 10 11 8 0 8 10 12 14 14 16 12 13 17 19 22 23 21 20 21 19 20 19 12 7 12 16 18 17 17 17 16 16 17 18 19 20 18 15 9 7 7 8 7 6 6 6 5 5 5 6 5 5 5 5 6 5 6 6 5 6 5 5 5 4 5 6 6 3 2 1 0 1 1 4 2 1 2 1 3
8 8 8 9 9 11 10 9 8 9 9 4 12 15 16 16 17 14 13 21 23 19 13 10 15 18 19 18 21 18 14 13 17 17 17 17 17 17 18 19 20 18 14 8 8 7 6 7 7 6 6 6 6 6 6 6 6 6 6 6 6 6 6 4 4 5 5 5 5 6 6 5 3 2 1 0 1 1 1 2 2 1 1 3 4
7 6 7 8 9 7 6 7 7 5 5 9 9 8 15 17 21 21 18 15 16 19 20 16 11 15 16 18 19 18 18 17 16 17 17 17 17 17 16 12 14 14 10 9 8 8 7 6 6 7 6 5 6 6 5 5 6 6 5 5 4 4 3 3 5 5 5 5 5 5 3 3 3 2 1 1 1 1 1 2 1 1 3 3 4
6 8 10 6 5 6 6 5 6 5 4 3 3 11 10 21 20 18 14 14 15 15 12 9 11 11 10 11 14 18 18 17 16 16 17 17 18 18 17 12 8 3 2 5 7 8 8 7 7 6 6 6 6 6 7 6 6 5 6 5 3 4 4 5 5 5 5 5 4 4 4 4 3 2 2 1 1 1 1 1 1 1 3 4 4
7 7 7 8 6 5 2 3 6 7 3 4 6 7 6 12 16 15 15 14 14 14 13 8 4 8 16 15 13 14 16 15 16 16 17 18 19 20 12 9 8 6 5 5 6 6 7 7 6 6 6 6 6 6 6 7 6 6 6 6 6 6 6 5 4 4 4 5 4 3 3 2 3 3 2 1 2 2 2 2 2 3 3 3 3
6 7 7 7 6 4 5 4 1 3 7 5 5 6 8 10 10 12 12 14 13 11 12 8 8 10 12 10 13 14 14 14 14 15 16 18 18 12 8 10 10 8 7 6 6 6 7 6 6 6 6 7 7 7 6 6 6 6 5 5 6 6 6 6 6 4 5 3 4 4 4 4 5 4 5 5 3 2 1 2 2 2 2 3 3
6 5 4 6 9 9 7 6 5 3 6 8 7 3 6 9 9 10 11 11 12 13 11 8 9 11 11 6 7 7 11 13 16 12 9 8 7 5 6 7 7 9 8 6 6 7 7 6 6 7 7 7 7 6 6 6 6 6 6 5 5 6 6 6 4 4 4 5 5 4 5 5 5 5 4 4 3 2 1 1 1 2 3 3 3
7 11 14 14 12 10 9 5 3 1 3 6 6 8 9 9 10 10 9 9 10 9 9 8 9 8 8 9 10 11 13 8 9 8 8 6 5 4 5 6 6 6 6 6 6 6 6 7 6 6 7 7 7 7 7 7 6 6 6 6 6 4 5 5 6 5 5 6 6 5 6 6 5 6 5 4 3 3 2 1 1 1 2 3 5
6 7 11 14 9 10 8 6 1 1 2 7 8 9 9 9 9 9 9 9 9 8 8 9 9 8 8 9 9 8 9 9 8 7 8 8 7 5 6 7 7 7 7 7 7 6 7 7 7 7 7 7 7 7 7 7 7 6 6 6 7 7 7 7 7 7 7 6 6 5 6 6 6 5 4 3 3 3 1 0 1 2 2 3 4
6 8 8 8 11 8 7 5 4 2 3 6 7 8 9 8 8 7 7 8 8 8 8 8 8 7 7 10 12 9 10 10 9 9 8 8 7 6 6 6 7 7 7 7 7 6 7 7 7 7 7 7 7 7 7 7 6 6 6 6 7 7 7 6 6 7 6 5 5 5 5 5 5 6 4 3 3 2 1 1 1 1 2 3 3
6 7 7 7 8 8 7 6 6 6 6 7 7 7 8 8 8 8 8 8 7 8 7 7 6 6 7 12 11 9 7 6 7 7 7 6 6 6 5 5 6 7 8 8 8 8 7 7 7 7 7 7 7 7 7 6 6 7 7 6 7 7 7 7 7 6 5 5 5 5 4 4 4 4 3 4 3 1 0 0 1 1 2 3 3
6 5 5 5 6 6 7 7 6 7 7 7 6 6 8 8 8 7 7 7 7 8 8 8 6 6 6 7 6 6 6 6 6 7 6 6 6 6 6 6 6 6 7 7 7 7 8 8 8 7 8 8 8 8 8 8 7 7 7 7 7 7 8 7 4 5 5 5 6 4 4 5 4 4 4 3 3 2 1 1 1 1 2 3 3
6 5 6 6 6 5 5 5 6 5 6 7 7 6 7 7 7 7 7 7 7 6 6 7 7 7 6 6 4 5 6 6 6 6 7 6 6 6 5 5 5 5 5 6 6 6 7 7 7 7 6 7 7 7 7 7 8 8 8 7 7 7 7 7 7 7 7 7 6 6 6 5 4 4 3 3 3 1 1 0 0 1 2 3 3
5 5 5 5 5 5 5 4 5 5 6 5 5 5 5 5 6 6 7 7 6 6 6 6 6 7 6 6 6 5 6 6 6 6 6 6 6 6 5 5 5 5 5 5 6 6 7 7 7 7 7 6 6 6 6 6 7 8 8 9 8 8 8 8 8 7 7 7 7 6 6 6 5 4 4 3 3 2 1 1 1 2 2 3 3
6 6 7 6 7 6 5 4 4 5 5 5 6 5 5 5 5 6 6 6 7 7 6 7 7 6 7 7 6 5 5 5 6 5 5 5 5 6 5 5 4 4 5 5 5 6 6 7 8 8 8 7 6 6 6 6 7 6 7 7 9 9 8 6 5 6 6 7 7 7 6 4 3 3 4 4 2 2 2 2 1 2 2 3 4
6 5 6 6 6 5 5 5 5 6 6 5 4 6 5 5 5 5 5 7 7 6 6 7 7 7 6 7 7 6 5 5 5 5 6 6 5 5 5 5 5 4 4 5 5 6 6 7 7 8 8 7 7 7 6 5 5 6 5 5 5 4 5 6 7 7 6 5 6 6 5 6 4 3 2 1 2 2 1 1 1 2 2 2 3
6 6 6 6 6 5 5 4 5 5 3 4 1 5 6 6 6 6 6 6 6 6 6 5 5 5 6 6 5 5 5 4 4 5 5 6 6 6 5 5 6 6 5 5 5 6 6 7 7 7 7 7 8 7 7 6 5 5 4 4 5 6 7 7 4 4 5 6 5 6 5 4 3 3 2 3 3 2 1 1 0 1 1 2 3
6 4 4 4 4 4 4 5 5 4 4 5 5 5 2 4 5 5 6 6 6 6 6 6 5 5 5 5 6 5 4 4 5 5 5 5 5 5 6 6 5 6 6 6 6 6 6 5 6 6 7 7 8 8 7 7 7 6 6 5 7 11 12 11 7 7 7 6 4 4 3 3 3 3 3 2 3 2 1 1 1 1 2 3 3
2 2 1 2 3 3 3 3 4 4 4 5 5 3 6 6 4 2 5 5 5 5 5 5 5 5 6 6 6 6 6 5 5 4 3 4 5 5 5 5 5 6 6 6 6 6 6 6 6 6 6 6 6 5 5 6 7 7 6 7 11 13 13 13 11 10 8 6 6 5 5 5 4 3 4 4 3 2 1 1 1 1 2 2 3
1 1 2 2 3 2 2 3 3 3 2 3 1 4 4 6 4 2 5 6 6 5 5 5 5 6 5 5 5 6 5 5 5 5 6 5 5 5 5 6 6 6 5 5 6 6 6 6 6 7 7 7 7 8 8 8 7 8 10 12 14 14 13 11 7 8 9 7 5 5 4 5 4 4 3 3 3 3 1 2 1 1 2 2 2
Wind_Direction
195 199 196 201 199 197 198 197 198 197 197 196 196 198 200 199 199 200 191 198 191 193 195 196 194 196 196 199 199 198 197 198 195 193 196 203 205 205 197 196 204 209 200 204 207 198 201 204 204 208 193 197 200 190 186 188 172 176 167 163 174 169 156 167 192 245 303 251 246 253 295 305 318 229 247 275 299 304 303 290 304 309 301 289 284
197 196 196 199 200 199 198 196 196 196 198 197 199 199 200 200 199 194 197 201 193 196 197 196 196 195 198 201 201 200 199 199 194 194 199 202 206 202 200 198 205 208 200 206 203 202 191 204 212 203 195 199 194 192 193 187 181 176 176 175 186 189 197 156 206 191 246 321 293 279 278 211 244 241 203 260 279 292 307 307 289 256 271 286 290
194 192 196 198 201 200 196 196 195 197 198 200 202 200 200 200 195 197 199 199 198 199 197 196 196 196 200 202 202 203 201 199 196 197 202 203 204 205 202 201 203 205 205 209 201 192 198 208 213 199 182 198 202 198 192 193 182 182 188 183 192 198 193 189 155 213 242 267 267 308 277 268 208 271 281 246 271 300 305 292 291 302 280 271 275
191 194 198 201 199 197 198 198 196 198 200 202 203 202 200 199 194 198 199 196 198 201 197 196 194 197 201 202 203 203 201 200 200 201 204 204 207 207 204 204 206 208 206 202 195 194 207 209 216 199 183 191 197 197 200 191 183 185 188 193 196 199 196 194 199 182 205 237 290 211 270 199 286 286 296 307 301 300 282 290 297 284 285 283 273
190 195 198 199 198 199 200 197 199 201 203 203 204 201 201 198 196 199 196 198 198 195 198 195 197 199 203 203 203 203 203 199 201 205 207 207 209 208 206 205 207 207 204 198 195 199 206 213 212 195 186 192 195 198 187 189 182 183 196 197 198 206 191 190 206 197 194 220 253 248 216 315 264 288 264 278 301 297 289 274 276 288 296 286 281
192 194 196 198 199 200 199 199 202 202 203 205 204 202 201 200 198 199 196 198 196 196 196 196 200 204 207 205 203 203 201 202 204 205 205 207 209 211 208 205 206 203 201 196 199 200 206 211 210 194 191 196 200 191 185 191 184 191 199 203 202 192 194 203 202 208 213 231 223 280 145 210 310 274 253 206 277 295 300 290 295 286 287 301 296
191 193 195 199 199 200 200 202 201 202 203 204 203 202 203 202 199 200 196 197 196 197 199 200 203 205 208 204 205 203 203 203 204 205 206 207 208 208 207 205 205 206 205 202 202 202 200 206 207 196 198 202 195 190 188 190 193 201 200 201 196 190 201 209 205 209 216 231 243 223 262 304 230 280 313 275 245 236 264 294 293 283 272 261 286
191 194 194 198 201 201 202 201 200 201 202 202 202 203 205 204 203 201 194 198 200 199 199 201 203 204 206 207 208 202 203 204 204 206 206 206 206 208 205 201 203 208 209 208 205 205 201 206 211 204 204 202 197 192 183 195 192 208 204 195 191 191 208 211 203 204 210 219 229 238 177 326 309 261 324 46 327 301 233 229 261 279 276 260 239
191 193 196 200 203 201 199 198 200 200 199 200 202 203 204 204 203 199 198 201 201 201 200 199 199 204 206 206 205 203 205 207 205 204 203 204 204 206 202 202 202 205 210 211 208 207 205 210 213 209 205 204 200 191 189 185 184 200 206 193 193 194 211 209 204 196 206 211 242 205 222 221 244 267 288 268 249 259 254 184 246 258 270 292 274
190 192 197 201 202 197 194 195 197 197 199 201 203 202 202 203 201 201 202 200 199 197 197 197 201 205 204 205 204 205 210 209 209 202 199 198 199 202 199 202 202 205 207 209 212 211 214 214 215 208 204 205 204 200 201 199 197 196 193 192 193 201 209 209 199 199 201 211 220 218 234 240 250 252 256 258 250 260 274 238 245 261 271 265 284
193 195 200 201 196 191 192 196 194 197 200 201 201 201 202 200 201 203 203 199 198 196 195 199 203 205 206 203 205 210 213 213 204 197 197 195 193 198 199 201 202 204 206 208 213 212 217 216 214 212 209 208 209 207 205 203 204 207 201 195 197 196 205 201 209 200 204 213 207 203 213 248 270 284 267 271 261 251 255 246 251 268 266 282 292
195 200 203 196 191 191 194 193 195 199 197 200 200 200 199 199 202 203 201 199 199 195 198 202 203 205 206 206 208 212 216 210 195 194 190 191 193 197 198 200 202 205 208 212 216 211 211 213 211 205 209 209 207 212 211 207 206 209 210 207 209 201 140 174 182 182 195 203 198 211 190 225 244 260 266 244 259 257 247 244 250 256 266 262 249
196 201 198 192 194 194 193 193 197 198 198 198 197 196 197 200 202 200 201 200 193 198 204 200 205 204 204 206 212 214 218 200 192 187 184 187 194 198 200 203 203 208 209 211 216 209 206 208 207 203 210 212 208 205 205 211 206 208 212 211 193 159 162 160 167 176 176 184 192 205 200 201 210 234 221 214 198 248 269 265 249 240 238 248 253
196 198 194 194 194 193 193 196 199 200 197 195 193 195 197 203 202 200 197 191 197 204 203 205 206 204 204 207 213 214 215 195 187 178 180 186 195 199 207 203 208 209 209 210 211 208 208 203 199 205 201 201 203 202 202 205 202 189 173 176 186 187 181 180 172 167 169 173 180 216 214 169 212 227 236 188 206 251 252 264 258 264 244 237 243
196 196 194 195 192 191 194 198 201 199 196 194 193 197 200 202 199 197 193 196 200 203 203 206 208 207 206 208 211 211 217 184 174 176 180 187 197 199 210 207 208 211 212 211 209 211 202 198 198 203 191 193 200 200 197 193 175 176 183 188 188 195 195 193 197 182 148 120 181 215 236 238 239 237 245 208 209 221 221 238 250 246 261 303 324
197 194 196 194 193 194 194 197 200 197 195 194 196 199 200 199 197 194 195 201 205 204 206 208 209 207 207 206 209 215 205 169 172 174 180 190 195 199 208 210 210 210 210 208 214 208 198 189 190 194 192 194 199 198 191 171 170 179 189 197 203 200 198 203 179 152 146 186 203 206 221 230 228 226 216 199 210 217 216 286 75 145 345 321 280
197 194 196 194 195 195 195 196 197 195 194 195 199 201 199 198 197 192 198 202 201 202 205 205 205 205 207 205 207 213 193 171 169 175 182 191 188 201 204 211 212 210 212 215 204 193 192 191 190 191 188 196 181 172 169 158 169 175 189 205 221 6 295 329 59 118 166 196 218 225 242 281 268 257 250 234 215 163 132 18 298 221 302 290 287
198 195 198 196 196 195 195 195 195 194 193 198 201 202 200 198 199 194 198 198 202 205 202 203 204 207 204 204 205 203 187 173 172 177 184 187 186 195 201 201 212 214 217 194 183 191 198 197 184 181 181 180 161 157 159 156 159 156 135 62 259 219 211 128 176 210 215 224 317 264 238 254 254 250 240 243 133 162 136 219 227 152 226 223 246
197 199 202 200 198 196 194 193 194 193 196 200 198 198 200 201 199 194 200 201 205 202 200 204 207 204 204 204 194 192 183 178 179 178 185 187 188 194 189 197 204 212 200 192 190 191 198 198 187 181 174 161 157 158 161 157 154 157 169 205 225 210 186 160 175 150 116 109 84 95 92 205 198 198 187 128 165 177 183 204 165 160 205 220 233
200 203 204 201 199 196 194 194 195 195 198 198 196 200 199 196 195 196 200 200 202 200 202 205 204 203 198 196 187 189 176 171 183 180 186 185 187 187 188 189 202 204 194 180 181 194 189 197 197 176 159 158 166 166 166 166 164 172 181 197 200 206 177 156 162 133 125 131 150 151 186 244 262 301 345 278 247 207 187 186 175 171 183 215 229
201 205 206 201 198 197 197 197 197 198 197 195 196 196 193 196 194 195 199 199 199 201 202 203 203 203 191 188 182 181 173 168 183 185 184 183 187 185 189 195 197 189 179 173 174 171 165 165 140 157 160 169 174 179 180 181 173 176 186 200 198 150 137 124 143 132 134 145 151 159 187 187 209 215 219 240 250 192 179 191 181 179 183 209 233
204 206 201 196 198 199 202 204 203 202 199 194 191 196 197 192 192 195 195 196 198 201 199 197 199 193 184 177 177 175 169 166 171 186 183 184 186 193 188 194 185 168 164 171 164 160 159 159 160 174 170 175 180 183 186 183 171 167 174 133 122 136 141 148 128 120 133 130 142 161 178 203 265 254 231 262 246 196 202 205 203 204 215 210 206
203 200 190 190 194 195 198 200 202 204 202 197 196 197 191 190 193 191 193 195 197 198 196 191 186 178 170 172 169 165 163 166 164 173 187 186 190 193 191 176 161 161 163 171 176 167 148 158 169 172 179 179 185 185 174 163 149 147 142 140 148 147 127 117 138 133 142 149 143 193 202 194 235 321 289 289 278 247 233 231 237 234 248 246 230
167 175 187 193 196 199 198 198 198 200 201 196 195 195 191 193 190 189 190 191 193 192 187 183 176 172 168 160 160 154 156 157 172 172 180 188 185 187 186 163 161 164 164 162 148 146 153 164 161 165 175 181 176 162 159 163 158 147 148 156 150 139 132 143 143 156 144 148 186 204 227 203 191 239 243 234 240 242 245 246 256 248 244 265 267
168 188 195 196 193 195 194 196 197 199 198 196 197 198 195 186 186 189 186 189 187 185 185 179 177 173 163 163 161 154 154 153 154 173 169 173 177 182 184 157 156 135 121 125 143 157 166 158 154 167 171 151 138 137 140 144 141 153 147 154 151 145 153 159 152 141 166 196 195 185 232 212 206 210 229 241 262 266 257 286 274 259 247 235 252
177 185 186 189 197 192 192 200 199 198 196 194 199 198 191 186 188 185 182 181 181 181 177 175 172 166 167 162 156 152 147 140 143 143 155 162 167 172 156 131 137 136 133 144 150 149 155 162 164 156 136 136 135 149 166 167 158 144 150 164 159 171 160 146 160 170 198 191 170 209 201 173 218 236 246 250 243 249 216 288 332 319 333 350 351
188 188 190 191 191 190 195 198 197 197 196 197 196 193 187 184 182 177 178 178 172 166 157 157 148 157 155 152 146 142 142 142 136 134 139 139 136 139 129 127 130 118 118 130 133 143 145 138 130 132 128 137 135 134 137 137 138 157 173 181 169 161 160 173 178 189 180 165 180 185 210 229 251 276 253 216 235 254 182 238 280 273 301 350 341
193 201 198 196 196 197 200 198 194 194 194 193 190 184 181 182 177 177 182 175 163 154 143 133 132 165 158 147 149 148 149 150 152 149 150 142 134 139 144 141 147 147 136 139 133 125 120 111 109 109 120 127 127 131 150 158 170 169 166 155 153 162 177 181 170 147 148 159 161 166 187 181 285 267 273 238 229 263 201 215 184 299 318 10 358
236 211 199 191 198 195 196 195 196 194 180 163 164 177 180 181 179 186 188 174 168 162 164 165 166 163 155 165 161 164 159 166 183 164 156 154 148 146 149 155 154 150 142 130 117 110 112 124 132 132 145 147 148 149 155 154 162 153 147 145 149 168 176 183 180 180 174 156 171 190 230 233 259 272 245 245 255 264 65 2 323 202 307 112 219
124 203 272 233 211 196 195 194 188 172 159 156 142 62 27 39 152 175 174 179 170 165 154 158 164 149 145 151 161 172 179 181 137 145 152 152 147 151 156 156 143 130 140 138 135 132 147 145 161 157 154 151 155 159 164 168 161 160 165 162 169 179 195 199 195 174 170 177 182 179 222 225 257 231 208 225 282 293 56 145 268 237 266 289 297
52 23 17 10 6 350 324 251 178 165 169 163 155 138 112 56 44 53 96 109 97 105 115 133 144 143 142 142 103 97 121 124 142 147 148 149 151 149 146 136 129 135 133 118 111 139 151 154 156 161 158 153 166 174 168 167 183 174 180 181 191 195 198 198 196 173 177 184 194 205 210 205 219 209 205 216 228 290 340 82 229 206 217 253 274
67 62 59 57 44 43 36 16 358 134 173 167 157 149 137 117 55 45 95 123 130 135 142 144 150 151 144 133 123 83 116 134 140 147 148 148 150 145 136 133 138 143 153 138 133 159 164 157 160 168 158 164 177 165 168 181 187 189 177 186 206 205 192 213 189 178 178 180 191 192 192 200 207 198 192 178 144 313 303 314 313 314 309 298 264
86 85 88 77 74 70 71 49 34 2 326 253 173 160 152 135 126 132 84 89 88 76 72 115 130 129 126 126 127 135 146 152 146 146 148 147 142 140 140 144 149 148 137 132 145 155 167 164 167 164 167 174 168 172 185 189 192 191 193 197 198 200 210 201 156 176 182 186 174 182 191 191 178 158 124 110 117 270 277 268 290 318 284 303 296
69 84 86 90 83 71 67 96 99 79 41 351 305 215 164 152 140 130 126 118 88 80 69 45 65 102 103 113 121 127 137 148 150 145 142 141 136 134 131 136 141 154 151 150 149 162 163 167 162 166 174 169 168 175 188 198 202 198 193 197 195 189 181 149 153 171 168 170 170 176 166 157 149 143 156 137 178 219 262 259 302 319 307 273 279
84 87 81 68 82 104 110 68 56 56 75 84 12 319 259 152 128 117 111 106 113 113 110 65 24 43 90 99 123 133 139 142 141 141 138 133 130 129 118 120 135 157 108 142 154 160 167 167 167 171 166 168 180 178 186 188 178 166 156 145 137 134 141 154 164 161 154 148 152 166 169 164 160 162 171 178 172 188 223 271 284 250 262 290 289
90 82 69 53 29 10 9 100 127 112 64 20 358 296 360 13 79 101 109 111 108 94 78 69 83 58 71 72 92 114 120 122 130 135 139 138 140 136 135 147 145 163 160 158 162 167 161 160 159 163 162 166 160 162 161 156 154 143 144 141 145 151 150 151 150 149 158 162 171 161 157 159 160 168 151 160 202 206 214 231 262 273 262 266 276
80 81 81 71 52 33 26 353 22 120 113 99 69 331 23 55 56 75 83 98 85 84 101 122 108 74 64 65 76 83 95 114 121 129 139 147 154 149 147 154 163 158 167 168 163 158 159 167 154 153 160 156 158 154 149 138 136 133 134 131 140 145 161 162 166 162 159 166 179 173 179 186 182 176 163 176 195 199 212 230 239 265 279 291 301
67 72 75 97 99 72 36 22 326 117 116 123 108 77 69 72 72 75 93 94 97 110 110 111 106 102 99 100 95 105 102 97 95 88 102 129 145 136 145 153 155 164 166 170 169 162 162 157 156 158 163 152 147 150 142 137 136 133 137 146 160 174 175 173 171 169 178 181 181 192 194 197 192 176 167 159 171 188 223 230 231 303 310 308 315
88 78 77 70 72 81 85 40 338 319 86 94 98 99 86 82 81 85 82 91 100 104 106 110 111 117 116 127 117 124 110 108 117 138 142 157 160 142 144 153 159 162 162 164 164 159 155 158 166 159 153 151 148 150 145 144 136 139 149 160 177 180 175 181 181 189 188 196 205 201 195 198 187 167 158 148 169 194 209 231 243 247 279 294 292
110 103 86 84 79 78 79 93 72 325 82 97 89 88 91 88 94 102 111 109 108 112 117 117 121 122 129 131 130 131 123 131 143 143 161 170 178 165 160 163 166 165 166 170 168 161 157 161 162 158 155 152 151 150 147 142 146 152 158 168 174 187 197 189 193 190 201 206 201 193 189 189 175 147 131 155 190 186 174 231 264 269 265 264 277
94 92 99 104 115 107 108 122 124 105 51 69 89 96 100 106 110 115 116 117 122 124 122 126 128 135 148 144 141 135 141 153 156 164 173 173 173 174 176 174 164 167 169 171 167 161 163 160 165 162 156 155 154 150 144 139 142 151 168 182 186 191 191 198 196 199 199 193 192 189 195 171 148 133 158 198 184 149 169 187 244 270 273 272 278
77 97 107 112 117 119 122 120 117 103 94 89 93 103 110 118 123 124 121 121 121 118 115 105 108 116 124 134 129 98 109 130 140 150 157 169 179 184 178 172 174 172 173 173 167 164 166 165 163 159 158 157 152 144 134 141 157 168 177 182 189 192 191 201 203 196 186 184 180 177 169 157 145 154 160 143 145 157 168 208 253 275 285 294 302
48 54 63 77 87 102 113 114 110 109 110 113 120 118 120 121 120 115 117 123 122 122 118 117 114 113 110 122 108 83 105 129 148 152 159 172 178 180 178 181 178 180 176 172 167 166 165 165 164 167 166 167 160 152 155 169 174 176 181 186 189 190 195 197 189 182 175 165 167 166 155 149 150 156 153 151 159 167 184 207 265 278 294 298 298
26 40 56 65 66 68 70 98 107 111 122 124 123 121 119 116 114 116 117 114 111 112 113 119 125 128 124 124 114 100 132 140 148 159 167 170 179 184 183 173 166 163 167 169 171 169 163 160 166 169 165 160 154 152 164 172 172 174 179 183 188 190 188 187 185 182 174 166 163 159 162 161 159 153 156 158 158 168 196 214 241 293 299 301 301
38 31 46 54 62 76 82 81 91 100 99 101 94 98 114 116 116 116 117 116 117 113 116 122 129 135 141 156 158 148 149 150 154 157 169 173 180 188 181 178 174 166 161 166 171 165 164 164 161 160 162 153 150 164 176 178 179 178 176 174 178 186 191 194 196 186 168 159 164 162 166 161 160 161 180 183 174 171 184 199 233 282 302 293 301
31 36 36 37 41 35 39 47 70 77 88 97 108 100 93 93 104 116 122 122 122 127 129 130 136 151 158 160 156 154 151 151 156 164 166 175 183 189 187 183 180 170 162 162 165 171 170 166 163 162 160 159 166 181 186 184 183 186 183 181 181 189 193 186 163 157 168 166 165 165 159 153 166 178 196 182 180 163 189 220 228 233 235 263 280
58 54 51 45 51 59 63 56 55 70 73 62 81 103 106 113 120 120 125 131 132 132 136 142 144 153 155 160 166 166 160 159 163 166 177 181 183 181 181 180 181 190 176 161 169 171 171 169 166 161 161 165 170 172 176 178 184 191 191 175 164 152 160 169 176 174 171 165 149 141 155 163 181 189 209 151 152 181 191 218 228 268 275 269 275
49 52 48 52 43 40 21 41 66 57 54 67 83 144 132 130 136 138 132 132 130 131 133 138 142 146 150 156 156 155 154 156 155 164 167 175 178 177 174 176 184 188 180 170 173 174 174 171 163 158 154 156 165 174 175 175 175 180 170 167 167 174 173 168 161 160 160 157 160 159 157 166 177 176 176 168 181 180 191 233 256 262 262 282 283
71 60 63 84 75 56 41 20 9 17 46 48 358 341 60 125 139 138 133 135 133 136 141 143 140 135 138 142 147 145 145 153 165 169 168 165 167 178 179 184 176 172 171 178 177 176 171 159 159 162 163 167 171 171 169 166 170 172 174 179 184 177 169 168 167 177 167 155 145 137 135 144 163 177 172 173 187 189 198 222 249 272 286 284 283
34 75 77 51 68 51 36 49 59 15 18 52 82 48 25 24 339 110 120 116 113 112 111 112 127 135 142 140 150 154 161 167 174 182 184 178 170 169 174 174 172 175 177 173 177 172 166 163 165 166 168 164 151 137 149 163 173 177 176 183 184 178 179 181 177 167 161 159 157 162 160 162 164 167 173 180 184 177 186 234 234 247 261 276 279
67 62 60 64 79 98 101 98 93 77 33 52 2 163 151 182 206 155 118 128 129 131 131 130 134 136 144 148 151 155 166 173 182 186 196 191 177 172 172 176 177 182 183 177 171 167 164 163 169 166 160 156 157 167 175 179 180 183 186 184 182 187 187 179 175 176 163 151 150 146 151 158 164 169 180 186 168 162 206 232 255 253 258 251 269